DW9758 Weather Reports


time (UTC)temp
C
wind
direction
speed
KPH
gust
KPH
rain 1hr
cm
rain 24hr
cm
rain mn
cm
humidity
%
barometer
mb
20260502163105 18 53 0.0 0.0 0.00 0.00 0.00 52 1015.2
20260502161604 19 53 0.0 0.0 0.00 0.00 0.00 52 1015.4
20260502151543 21 62 0.0 11.3 0.00 0.00 0.00 49 1015.9
20260502123013 21 51 0.0 1.6 0.00 0.00 0.00 43 1018.0
20260502121511 21 84 1.6 9.7 0.00 0.00 0.00 47 1018.2
20260502114508 21 97 0.0 0.0 0.00 0.00 0.00 46 1018.5
20260502113005 21 100 3.2 11.3 0.00 0.00 0.00 43 1018.8
20260502111503 21 105 0.0 11.3 0.00 0.00 0.00 45 1019.0
20260502110003 21 48 4.8 12.9 0.00 0.00 0.00 47 1019.1
20260502104501 21 76 0.0 1.6 0.00 0.00 0.00 47 1019.2
20260502103058 20 223 0.0 0.0 0.00 0.00 0.00 47 1019.4
20260502101601 20 211 0.0 0.0 0.00 0.00 0.00 48 1019.6
20260502071525 15 181 0.0 0.0 0.00 0.00 0.00 66 1020.9
20260502070022 14 181 0.0 0.0 0.00 0.00 0.00 63 1021.1
20260502064517 13 183 0.0 0.0 0.00 0.00 0.00 71 1021.1
20260502063016 13 62 0.0 0.0 0.00 0.00 0.00 67 1021.2
20260502061517 12 62 0.0 0.0 0.00 0.00 0.00 69 1021.2
20260502060012 13 61 0.0 0.0 0.00 0.00 0.00 68 1021.4
20260502054507 12 61 0.0 0.0 0.00 0.00 0.00 72 1021.3
20260502053058 11 61 0.0 0.0 0.00 0.00 0.00 72 1021.4
20260502051559 9 61 0.0 1.6 0.00 0.00 0.00 74 1021.4
20260502050047 8 5 0.0 0.0 0.00 0.00 0.00 77 1021.4
20260502044546 7 5 0.0 0.0 0.00 0.00 0.00 79 1021.4
20260502043046 7 5 0.0 0.0 0.00 0.00 0.00 77 1021.5
20260502041544 7 5 0.0 0.0 0.00 0.00 0.00 76 1021.5
20260502040043 7 5 0.0 0.0 0.00 0.00 0.00 77 1021.3
20260502034542 7 5 0.0 3.2 0.00 0.00 0.00 76 1021.3
20260502033041 7 5 0.0 0.0 0.00 0.00 0.00 76 1021.3
20260502031540 7 5 0.0 0.0 0.00 0.00 0.00 75 1021.4
20260502030045 7 5 0.0 0.0 0.00 0.00 0.00 74 1021.4
20260502024538 7 5 0.0 0.0 0.00 0.00 0.00 75 1021.5
20260502023038 7 5 0.0 0.0 0.00 0.00 0.00 75 1021.3
20260502021536 7 5 0.0 0.0 0.00 0.00 0.00 75 1021.6
20260502020036 7 5 0.0 0.0 0.00 0.00 0.00 74 1021.5
20260502014536 7 5 0.0 0.0 0.00 0.00 0.00 74 1021.5
20260502013034 8 5 0.0 0.0 0.00 0.00 0.00 73 1021.6
20260502011533 7 5 0.0 0.0 0.00 0.00 0.00 74 1021.6
20260502010032 7 5 0.0 0.0 0.00 0.00 0.00 74 1021.6
20260502004531 7 5 0.0 0.0 0.00 0.00 0.00 74 1021.8
20260502003028 7 5 0.0 0.0 0.00 0.00 0.00 74 1022.0
20260502001527 7 5 0.0 0.0 0.00 0.00 0.00 73 1022.1
20260502000024 7 5 0.0 0.0 0.00 0.00 0.00 73 1022.2
20260501234524 7 5 0.0 0.0 0.00 0.00 0.00 74 1022.2
20260501233022 7 47 0.0 0.0 0.00 0.00 0.00 73 1022.4
20260501231520 8 47 0.0 0.0 0.00 0.00 0.00 73 1022.4
20260501230018 8 51 0.0 0.0 0.00 0.00 0.00 73 1022.5
20260501224517 8 51 0.0 0.0 0.00 0.00 0.00 73 1022.5
20260501223016 8 51 0.0 0.0 0.00 0.00 0.00 74 1022.6
20260501221516 8 51 0.0 0.0 0.00 0.00 0.00 73 1022.6
20260501220014 8 53 0.0 0.0 0.00 0.00 0.00 74 1022.6
20260501214514 8 347 0.0 0.0 0.00 0.00 0.00 76 1022.7
20260501213014 8 273 0.0 0.0 0.00 0.00 0.00 76 1022.7
20260501211511 8 273 0.0 0.0 0.00 0.00 0.00 74 1022.7
20260501210010 8 273 0.0 0.0 0.00 0.00 0.00 75 1022.7
20260501204510 8 273 0.0 0.0 0.00 0.00 0.00 74 1022.7
20260501203013 8 273 0.0 0.0 0.00 0.00 0.00 74 1022.6
20260501201508 9 273 0.0 0.0 0.00 0.00 0.00 73 1022.7
20260501200008 10 273 0.0 0.0 0.00 0.00 0.00 73 1022.6
20260501194512 10 273 0.0 0.0 0.00 0.00 0.00 72 1022.5
20260501193006 10 273 0.0 0.0 0.00 0.00 0.00 71 1022.4
20260501191506 11 273 0.0 0.0 0.00 0.00 0.00 70 1022.2
20260501190009 11 273 0.0 0.0 0.00 0.00 0.00 68 1022.2
20260501184509 11 273 0.0 0.0 0.00 0.00 0.00 67 1022.0
20260501183005 12 273 0.0 3.2 0.00 0.00 0.00 64 1021.8
20260501181503 13 268 0.0 0.0 0.00 0.00 0.00 63 1021.6
20260501180003 14 314 0.0 3.2 0.00 0.00 0.00 59 1021.5
20260501174502 15 335 0.0 0.0 0.00 0.00 0.00 56 1021.5
20260501173003 16 351 1.6 9.7 0.00 0.00 0.00 53 1021.1
20260501171501 16 47 0.0 11.3 0.00 0.00 0.00 49 1021.3
20260501170100 17 3 0.0 0.0 0.00 0.00 0.00 51 1021.3
20260501164600 17 74 0.0 4.8 0.00 0.00 0.00 46 1021.3